| time (UTC) | temp F | wind direction | speed MPH | gust MPH | rain 1hr in | rain 24hr in | rain mn in | humidity % | barometer mb |
| 20260906121132 | 76 | 168 | 0.0 | 4.0 | 0.00 | 0.00 | 0.00 | 89 | 1014.1 |
| 20260906120645 | 76 | 167 | 1.0 | 5.0 | 0.00 | 0.00 | 0.00 | 89 | 1014.1 |
| 20260906115705 | 76 | 167 | 2.0 | 5.0 | 0.00 | 0.00 | 0.00 | 89 | 1013.9 |
| 20260906115201 | 76 | 169 | 2.0 | 5.0 | 0.00 | 0.00 | 0.00 | 88 | 1014.1 |
| 20260906114714 | 76 | 170 | 2.0 | 5.0 | 0.00 | 0.00 | 0.00 | 88 | 1014.1 |
| 20260906114139 | 76 | 163 | 1.0 | 5.0 | 0.00 | 0.00 | 0.00 | 88 | 1014.0 |
| 20260906113630 | 76 | 149 | 2.0 | 6.0 | 0.00 | 0.00 | 0.00 | 88 | 1013.7 |
| 20260906113144 | 76 | 172 | 4.0 | 7.0 | 0.00 | 0.00 | 0.00 | 88 | 1013.8 |
| 20260906112710 | 76 | 174 | 2.0 | 9.0 | 0.00 | 0.00 | 0.00 | 88 | 1013.7 |
| 20260906112123 | 76 | 130 | 5.0 | 9.0 | 0.00 | 0.00 | 0.00 | 88 | 1013.5 |
| 20260906111649 | 76 | 207 | 0.0 | 0.0 | 0.00 | 0.00 | 0.00 | 87 | 1013.0 |
| 20260906111206 | 76 | 207 | 0.0 | 0.0 | 0.00 | 0.00 | 0.00 | 87 | 1013.0 |
| 20260906110650 | 76 | 207 | 0.0 | 0.0 | 0.00 | 0.00 | 0.00 | 87 | 1013.0 |
| 20260906110147 | 76 | 207 | 0.0 | 0.0 | 0.00 | 0.00 | 0.00 | 87 | 1013.1 |
| 20260906105646 | 76 | 207 | 0.0 | 0.0 | 0.00 | 0.00 | 0.00 | 87 | 1013.1 |
| 20260906105208 | 76 | 207 | 0.0 | 0.0 | 0.00 | 0.00 | 0.00 | 87 | 1013.2 |
| 20260906104722 | 76 | 207 | 0.0 | 0.0 | 0.00 | 0.00 | 0.00 | 87 | 1013.2 |
| 20260906104127 | 76 | 207 | 0.0 | 0.0 | 0.00 | 0.00 | 0.00 | 87 | 1013.2 |
| 20260906103651 | 76 | 207 | 0.0 | 0.0 | 0.00 | 0.00 | 0.00 | 86 | 1013.3 |
| 20260906103229 | 76 | 207 | 0.0 | 0.0 | 0.00 | 0.00 | 0.00 | 86 | 1013.2 |
| 20260906102701 | 76 | 207 | 0.0 | 0.0 | 0.00 | 0.00 | 0.00 | 86 | 1013.1 |
| 20260906102158 | 76 | 207 | 0.0 | 0.0 | 0.00 | 0.00 | 0.00 | 85 | 1013.1 |
| 20260906101710 | 76 | 207 | 0.0 | 0.0 | 0.00 | 0.00 | 0.00 | 85 | 1013.0 |
| 20260906101200 | 76 | 207 | 0.0 | 0.0 | 0.00 | 0.00 | 0.00 | 85 | 1013.0 |
| 20260906100708 | 76 | 207 | 0.0 | 0.0 | 0.00 | 0.00 | 0.00 | 86 | 1012.9 |
| 20260906100203 | 76 | 207 | 0.0 | 0.0 | 0.00 | 0.00 | 0.00 | 86 | 1013.0 |
| 20260906095656 | 76 | 207 | 0.0 | 0.0 | 0.00 | 0.00 | 0.00 | 86 | 1013.0 |
| 20260906095204 | 77 | 207 | 0.0 | 0.0 | 0.00 | 0.00 | 0.00 | 86 | 1013.0 |
| 20260906094701 | 77 | 207 | 0.0 | 1.0 | 0.00 | 0.00 | 0.00 | 85 | 1012.9 |
| 20260906094204 | 77 | 207 | 0.0 | 2.0 | 0.00 | 0.00 | 0.00 | 85 | 1012.9 |
| 20260906093702 | 77 | 207 | 1.0 | 2.0 | 0.00 | 0.00 | 0.00 | 85 | 1013.0 |
| 20260906093215 | 77 | 207 | 1.0 | 2.0 | 0.00 | 0.00 | 0.00 | 85 | 1013.0 |
| 20260906092627 | 77 | 207 | 1.0 | 2.0 | 0.00 | 0.00 | 0.00 | 84 | 1013.0 |
| 20260906092151 | 77 | 207 | 0.0 | 2.0 | 0.00 | 0.00 | 0.00 | 84 | 1013.0 |
| 20260906091643 | 77 | 207 | 1.0 | 2.0 | 0.00 | 0.00 | 0.00 | 84 | 1013.2 |
| 20260906091203 | 78 | 207 | 1.0 | 2.0 | 0.00 | 0.00 | 0.00 | 83 | 1013.1 |
| 20260906090720 | 78 | 207 | 1.0 | 2.0 | 0.00 | 0.00 | 0.00 | 83 | 1013.2 |
| 20260906090129 | 78 | 207 | 0.0 | 0.0 | 0.00 | 0.00 | 0.00 | 83 | 1013.2 |
| 20260906085652 | 78 | 207 | 0.0 | 0.0 | 0.00 | 0.00 | 0.00 | 82 | 1013.2 |
| 20260906085144 | 78 | 207 | 0.0 | 0.0 | 0.00 | 0.00 | 0.00 | 82 | 1013.1 |
| 20260906084707 | 78 | 207 | 0.0 | 0.0 | 0.00 | 0.00 | 0.00 | 82 | 1013.3 |
| 20260906084217 | 78 | 207 | 0.0 | 4.0 | 0.00 | 0.00 | 0.00 | 82 | 1013.3 |
| 20260906083708 | 78 | 207 | 1.0 | 4.0 | 0.00 | 0.00 | 0.00 | 82 | 1013.3 |
| 20260906083128 | 78 | 207 | 2.0 | 4.0 | 0.00 | 0.00 | 0.00 | 81 | 1013.4 |
| 20260906082631 | 79 | 207 | 0.0 | 4.0 | 0.00 | 0.00 | 0.00 | 81 | 1013.5 |
| 20260906082158 | 79 | 207 | 1.0 | 5.0 | 0.00 | 0.00 | 0.00 | 81 | 1013.5 |
| 20260906081713 | 79 | 207 | 3.0 | 5.0 | 0.00 | 0.00 | 0.00 | 81 | 1013.6 |
| 20260906081228 | 79 | 207 | 3.0 | 4.0 | 0.00 | 0.00 | 0.00 | 80 | 1013.6 |
| 20260906080628 | 79 | 207 | 2.0 | 4.0 | 0.00 | 0.00 | 0.00 | 80 | 1013.7 |
| 20260906080230 | 79 | 207 | 1.0 | 2.0 | 0.00 | 0.00 | 0.00 | 79 | 1013.6 |
| 20260906075705 | 79 | 207 | 1.0 | 2.0 | 0.00 | 0.00 | 0.00 | 79 | 1013.6 |
| 20260906075212 | 80 | 207 | 0.0 | 2.0 | 0.00 | 0.00 | 0.00 | 78 | 1013.7 |
| 20260906074208 | 80 | 207 | 0.0 | 4.0 | 0.00 | 0.00 | 0.00 | 78 | 1013.7 |
| 20260906073703 | 80 | 207 | 1.0 | 8.0 | 0.00 | 0.00 | 0.00 | 78 | 1013.7 |
| 20260906073157 | 80 | 207 | 2.0 | 12.0 | 0.00 | 0.00 | 0.00 | 78 | 1013.9 |
| 20260906072234 | 80 | 173 | 4.0 | 12.0 | 0.00 | 0.00 | 0.00 | 78 | 1014.0 |
| 20260906071735 | 80 | 211 | 5.0 | 12.0 | 0.00 | 0.00 | 0.00 | 78 | 1014.2 |
| 20260906071228 | 80 | 208 | 7.0 | 11.0 | 0.00 | 0.00 | 0.00 | 78 | 1014.3 |
| 20260906070626 | 80 | 186 | 6.0 | 11.0 | 0.00 | 0.00 | 0.00 | 77 | 1014.3 |
| 20260906070142 | 80 | 182 | 2.0 | 5.0 | 0.00 | 0.00 | 0.00 | 77 | 1014.3 |
| 20260906065626 | 80 | 162 | 1.0 | 6.0 | 0.00 | 0.00 | 0.00 | 77 | 1014.3 |
| 20260906065131 | 80 | 150 | 2.0 | 6.0 | 0.00 | 0.00 | 0.00 | 77 | 1014.3 |
| 20260906064658 | 80 | 162 | 3.0 | 5.0 | 0.00 | 0.00 | 0.00 | 76 | 1014.3 |
| 20260906064142 | 81 | 162 | 4.0 | 6.0 | 0.00 | 0.00 | 0.00 | 76 | 1014.3 |
| 20260906063629 | 81 | 155 | 4.0 | 7.0 | 0.00 | 0.00 | 0.00 | 76 | 1014.3 |
| 20260906063127 | 81 | 127 | 4.0 | 8.0 | 0.00 | 0.00 | 0.00 | 75 | 1014.3 |
| 20260906062634 | 81 | 165 | 3.0 | 8.0 | 0.00 | 0.00 | 0.00 | 75 | 1014.4 |
| 20260906062139 | 81 | 157 | 4.0 | 6.0 | 0.00 | 0.00 | 0.00 | 75 | 1014.5 |
| 20260906061648 | 81 | 163 | 3.0 | 8.0 | 0.00 | 0.00 | 0.00 | 74 | 1014.6 |
| 20260906061134 | 81 | 175 | 4.0 | 8.0 | 0.00 | 0.00 | 0.00 | 74 | 1014.6 |
| 20260906060631 | 81 | 151 | 4.0 | 8.0 | 0.00 | 0.00 | 0.00 | 73 | 1014.6 |
| 20260906060134 | 81 | 161 | 4.0 | 10.0 | 0.00 | 0.00 | 0.00 | 73 | 1014.6 |
| 20260906055623 | 82 | 153 | 4.0 | 9.0 | 0.00 | 0.00 | 0.00 | 72 | 1014.5 |
| 20260906055150 | 82 | 157 | 4.0 | 9.0 | 0.00 | 0.00 | 0.00 | 72 | 1014.4 |
| 20260906054657 | 82 | 176 | 5.0 | 9.0 | 0.00 | 0.00 | 0.00 | 71 | 1014.5 |
| 20260906054141 | 82 | 169 | 3.0 | 8.0 | 0.00 | 0.00 | 0.00 | 71 | 1014.4 |
| 20260906053649 | 82 | 182 | 5.0 | 8.0 | 0.00 | 0.00 | 0.00 | 70 | 1014.5 |
| 20260906053125 | 82 | 140 | 4.0 | 7.0 | 0.00 | 0.00 | 0.00 | 70 | 1014.6 |
| 20260906052634 | 82 | 146 | 3.0 | 7.0 | 0.00 | 0.00 | 0.00 | 69 | 1014.6 |
| 20260906052201 | 82 | 145 | 4.0 | 8.0 | 0.00 | 0.00 | 0.00 | 69 | 1014.6 |
| 20260906051647 | 83 | 193 | 2.0 | 8.0 | 0.00 | 0.00 | 0.00 | 69 | 1014.6 |
| 20260906051132 | 83 | 167 | 3.0 | 8.0 | 0.00 | 0.00 | 0.00 | 69 | 1014.5 |
| 20260906050636 | 83 | 156 | 4.0 | 8.0 | 0.00 | 0.00 | 0.00 | 68 | 1014.5 |
| 20260906050133 | 83 | 207 | 4.0 | 8.0 | 0.00 | 0.00 | 0.00 | 68 | 1014.6 |
| 20260906045721 | 83 | 153 | 6.0 | 9.0 | 0.00 | 0.00 | 0.00 | 68 | 1014.6 |
| 20260906045140 | 83 | 151 | 5.0 | 9.0 | 0.00 | 0.00 | 0.00 | 68 | 1014.7 |
| 20260906044654 | 83 | 155 | 5.0 | 11.0 | 0.00 | 0.00 | 0.00 | 68 | 1014.7 |
| 20260906043629 | 84 | 146 | 5.0 | 16.0 | 0.00 | 0.00 | 0.00 | 68 | 1014.7 |
| 20260906043151 | 84 | 129 | 10.0 | 16.0 | 0.00 | 0.00 | 0.00 | 68 | 1014.7 |
| 20260906042643 | 84 | 175 | 7.0 | 15.0 | 0.00 | 0.00 | 0.00 | 68 | 1014.8 |
| 20260906041740 | 84 | 150 | 6.0 | 14.0 | 0.00 | 0.00 | 0.00 | 67 | 1014.7 |
| 20260906041213 | 84 | 164 | 8.0 | 14.0 | 0.00 | 0.00 | 0.00 | 67 | 1014.6 |
| 20260906040723 | 84 | 145 | 6.0 | 13.0 | 0.00 | 0.00 | 0.00 | 67 | 1014.4 |
| 20260906040218 | 85 | 130 | 7.0 | 13.0 | 0.00 | 0.00 | 0.00 | 66 | 1014.5 |
| 20260906035221 | 85 | 144 | 7.0 | 11.0 | 0.00 | 0.00 | 0.00 | 66 | 1014.5 |
| 20260906034627 | 85 | 90 | 6.0 | 13.0 | 0.00 | 0.00 | 0.00 | 65 | 1014.4 |
| 20260906034153 | 85 | 115 | 7.0 | 16.0 | 0.00 | 0.00 | 0.00 | 65 | 1014.4 |
| 20260906033220 | 86 | 142 | 10.0 | 19.0 | 0.00 | 0.00 | 0.00 | 65 | 1014.2 |
| 20260906032715 | 86 | 143 | 8.0 | 16.0 | 0.00 | 0.00 | 0.00 | 64 | 1014.0 |
| 20260906032210 | 86 | 92 | 8.0 | 16.0 | 0.00 | 0.00 | 0.00 | 64 | 1013.9 |
| 20260906031623 | 86 | 180 | 5.0 | 13.0 | 0.00 | 0.00 | 0.00 | 63 | 1013.8 |
| 20260906031141 | 87 | 161 | 8.0 | 12.0 | 0.00 | 0.00 | 0.00 | 63 | 1013.6 |
| 20260906030658 | 87 | 124 | 8.0 | 12.0 | 0.00 | 0.00 | 0.00 | 63 | 1013.5 |
| 20260906030200 | 87 | 138 | 6.0 | 14.0 | 0.00 | 0.00 | 0.00 | 62 | 1013.5 |
| 20260906025652 | 87 | 192 | 5.0 | 14.0 | 0.00 | 0.00 | 0.00 | 61 | 1013.4 |
| 20260906025206 | 87 | 169 | 7.0 | 16.0 | 0.00 | 0.00 | 0.00 | 61 | 1013.3 |
| 20260906024642 | 88 | 134 | 9.0 | 19.0 | 0.00 | 0.00 | 0.00 | 59 | 1013.2 |
| 20260906024201 | 88 | 134 | 9.0 | 19.0 | 0.00 | 0.00 | 0.00 | 58 | 1013.1 |
| 20260906023711 | 88 | 103 | 10.0 | 18.0 | 0.00 | 0.00 | 0.00 | 57 | 1012.9 |
| 20260906023214 | 89 | 115 | 10.0 | 18.0 | 0.00 | 0.00 | 0.00 | 56 | 1012.7 |
| 20260906022144 | 89 | 121 | 7.0 | 12.0 | 0.00 | 0.00 | 0.00 | 54 | 1012.4 |
| 20260906021705 | 89 | 69 | 7.0 | 14.0 | 0.00 | 0.00 | 0.00 | 54 | 1012.3 |
| 20260906021214 | 89 | 98 | 6.0 | 11.0 | 0.00 | 0.00 | 0.00 | 54 | 1012.2 |
| 20260906020146 | 89 | 74 | 6.0 | 12.0 | 0.00 | 0.00 | 0.00 | 53 | 1012.0 |
| 20260906015743 | 89 | 67 | 5.0 | 15.0 | 0.00 | 0.00 | 0.00 | 53 | 1012.0 |
| 20260906015138 | 89 | 120 | 6.0 | 16.0 | 0.00 | 0.00 | 0.00 | 53 | 1011.9 |
| 20260906014652 | 89 | 104 | 7.0 | 16.0 | 0.00 | 0.00 | 0.00 | 53 | 1012.0 |
| 20260906014206 | 88 | 130 | 6.0 | 9.0 | 0.00 | 0.00 | 0.00 | 52 | 1012.0 |
| 20260906013624 | 89 | 76 | 5.0 | 6.0 | 0.00 | 0.00 | 0.00 | 52 | 1011.9 |
| 20260906013139 | 89 | 119 | 3.0 | 5.0 | 0.00 | 0.00 | 0.00 | 52 | 1011.7 |
| 20260906012634 | 89 | 119 | 4.0 | 5.0 | 0.00 | 0.00 | 0.00 | 51 | 1011.7 |
| 20260906012154 | 90 | 119 | 2.0 | 4.0 | 0.00 | 0.00 | 0.00 | 50 | 1011.8 |
| 20260906011136 | 91 | 119 | 2.0 | 3.0 | 0.00 | 0.00 | 0.00 | 49 | 1011.6 |
| 20260906010658 | 91 | 119 | 2.0 | 4.0 | 0.00 | 0.00 | 0.00 | 48 | 1011.6 |
| 20260906010155 | 91 | 119 | 2.0 | 4.0 | 0.00 | 0.00 | 0.00 | 48 | 1011.5 |
| 20260906005706 | 92 | 119 | 3.0 | 5.0 | 0.00 | 0.00 | 0.00 | 47 | 1011.6 |
| 20260906005123 | 92 | 119 | 3.0 | 5.0 | 0.00 | 0.00 | 0.00 | 46 | 1011.3 |
| 20260906004635 | 92 | 124 | 2.0 | 5.0 | 0.00 | 0.00 | 0.00 | 46 | 1011.3 |
| 20260906004234 | 93 | 120 | 2.0 | 7.0 | 0.00 | 0.00 | 0.00 | 46 | 1011.4 |
| 20260906003625 | 93 | 123 | 4.0 | 7.0 | 0.00 | 0.00 | 0.00 | 45 | 1011.4 |
| 20260906003154 | 93 | 136 | 4.0 | 8.0 | 0.00 | 0.00 | 0.00 | 45 | 1011.4 |
| 20260906002707 | 93 | 75 | 5.0 | 12.0 | 0.00 | 0.00 | 0.00 | 44 | 1011.5 |
| 20260906001716 | 94 | 113 | 5.0 | 13.0 | 0.00 | 0.00 | 0.00 | 44 | 1011.5 |
| 20260906001206 | 94 | 84 | 6.0 | 13.0 | 0.00 | 0.00 | 0.00 | 44 | 1011.4 |
| 20260906000713 | 94 | 121 | 5.0 | 9.0 | 0.00 | 0.00 | 0.00 | 43 | 1011.5 |
| 20260906000208 | 95 | 78 | 4.0 | 7.0 | 0.00 | 0.00 | 0.00 | 43 | 1011.3 |
| 20260905235719 | 95 | 98 | 3.0 | 7.0 | 0.00 | 0.00 | 0.00 | 43 | 1011.4 |
| 20260905235130 | 95 | 78 | 2.0 | 6.0 | 0.00 | 0.00 | 0.00 | 43 | 1011.3 |
| 20260905234654 | 95 | 75 | 3.0 | 7.0 | 0.00 | 0.00 | 0.00 | 42 | 1011.4 |
| 20260905233634 | 95 | 88 | 5.0 | 8.0 | 0.00 | 0.00 | 0.00 | 42 | 1011.4 |
| 20260905233157 | 95 | 100 | 3.0 | 9.0 | 0.00 | 0.00 | 0.00 | 42 | 1011.4 |
| 20260905232634 | 95 | 78 | 3.0 | 9.0 | 0.00 | 0.00 | 0.00 | 42 | 1011.4 |
| 20260905232147 | 95 | 114 | 4.0 | 9.0 | 0.00 | 0.00 | 0.00 | 42 | 1011.4 |
| 20260905231709 | 95 | 84 | 3.0 | 7.0 | 0.00 | 0.00 | 0.00 | 42 | 1011.4 |
| 20260905231207 | 95 | 123 | 4.0 | 12.0 | 0.00 | 0.00 | 0.00 | 42 | 1011.3 |
| 20260905230657 | 94 | 169 | 7.0 | 12.0 | 0.00 | 0.00 | 0.00 | 42 | 1011.2 |
| 20260905230148 | 94 | 84 | 6.0 | 11.0 | 0.00 | 0.00 | 0.00 | 42 | 1011.3 |
| 20260905225641 | 94 | 101 | 6.0 | 11.0 | 0.00 | 0.00 | 0.00 | 42 | 1011.4 |
| 20260905225145 | 94 | 94 | 6.0 | 10.0 | 0.00 | 0.00 | 0.00 | 44 | 1011.5 |
| 20260905224638 | 94 | 122 | 5.0 | 8.0 | 0.00 | 0.00 | 0.00 | 45 | 1011.5 |
| 20260905224133 | 94 | 106 | 7.0 | 8.0 | 0.00 | 0.00 | 0.00 | 45 | 1011.7 |
| 20260905223655 | 94 | 98 | 1.0 | 5.0 | 0.00 | 0.00 | 0.00 | 46 | 1011.6 |
| 20260905223132 | 94 | 87 | 3.0 | 7.0 | 0.00 | 0.00 | 0.00 | 44 | 1011.5 |
| 20260905222646 | 94 | 111 | 5.0 | 10.0 | 0.00 | 0.00 | 0.00 | 42 | 1011.7 |
| 20260905221635 | 95 | 92 | 6.0 | 11.0 | 0.00 | 0.00 | 0.00 | 43 | 1011.7 |
| 20260905221154 | 96 | 56 | 7.0 | 14.0 | 0.00 | 0.00 | 0.00 | 43 | 1011.5 |
| 20260905220716 | 96 | 94 | 9.0 | 14.0 | 0.00 | 0.00 | 0.00 | 42 | 1011.7 |
| 20260905215634 | 97 | 90 | 1.0 | 7.0 | 0.00 | 0.00 | 0.00 | 42 | 1011.7 |
| 20260905215155 | 96 | 62 | 2.0 | 9.0 | 0.00 | 0.00 | 0.00 | 43 | 1011.7 |
| 20260905214648 | 96 | 125 | 4.0 | 12.0 | 0.00 | 0.00 | 0.00 | 43 | 1011.6 |
| 20260905214202 | 96 | 147 | 5.0 | 12.0 | 0.00 | 0.00 | 0.00 | 43 | 1011.7 |
| 20260905213624 | 96 | 102 | 2.0 | 9.0 | 0.00 | 0.00 | 0.00 | 46 | 1011.8 |
| 20260905213142 | 95 | 59 | 3.0 | 11.0 | 0.00 | 0.00 | 0.00 | 44 | 1011.9 |
| 20260905212706 | 95 | 159 | 6.0 | 11.0 | 0.00 | 0.00 | 0.00 | 44 | 1011.9 |
| 20260905212218 | 95 | 61 | 5.0 | 12.0 | 0.00 | 0.00 | 0.00 | 44 | 1011.9 |
| 20260905211630 | 96 | 168 | 7.0 | 12.0 | 0.00 | 0.00 | 0.00 | 43 | 1011.9 |
| 20260905211154 | 96 | 159 | 4.0 | 10.0 | 0.00 | 0.00 | 0.00 | 44 | 1011.9 |
| 20260905210138 | 95 | 44 | 0.0 | 12.0 | 0.00 | 0.00 | 0.00 | 46 | 1011.9 |
| 20260905205705 | 95 | 61 | 7.0 | 12.0 | 0.00 | 0.00 | 0.00 | 45 | 1012.0 |
| 20260905205218 | 95 | 80 | 7.0 | 11.0 | 0.00 | 0.00 | 0.00 | 45 | 1012.1 |
| 20260905204717 | 95 | 146 | 5.0 | 10.0 | 0.00 | 0.00 | 0.00 | 41 | 1012.2 |
| 20260905203635 | 95 | 122 | 6.0 | 10.0 | 0.00 | 0.00 | 0.00 | 42 | 1012.5 |
| 20260905203158 | 95 | 218 | 3.0 | 12.0 | 0.00 | 0.00 | 0.00 | 43 | 1012.5 |
| 20260905202709 | 95 | 201 | 5.0 | 12.0 | 0.00 | 0.00 | 0.00 | 44 | 1012.6 |
| 20260905202205 | 94 | 196 | 6.0 | 11.0 | 0.00 | 0.00 | 0.00 | 42 | 1012.6 |
| 20260905201134 | 94 | 182 | 5.0 | 11.0 | 0.00 | 0.00 | 0.00 | 44 | 1012.8 |
| 20260905200652 | 93 | 186 | 6.0 | 11.0 | 0.00 | 0.00 | 0.00 | 45 | 1013.0 |
| 20260905195637 | 93 | 127 | 7.0 | 11.0 | 0.00 | 0.00 | 0.00 | 48 | 1013.1 |
| 20260905195151 | 93 | 189 | 7.0 | 9.0 | 0.00 | 0.00 | 0.00 | 49 | 1013.1 |
| 20260905194716 | 93 | 157 | 4.0 | 11.0 | 0.00 | 0.00 | 0.00 | 48 | 1013.2 |
| 20260905194124 | 93 | 130 | 7.0 | 11.0 | 0.00 | 0.00 | 0.00 | 50 | 1013.4 |
| 20260905193639 | 93 | 141 | 5.0 | 13.0 | 0.00 | 0.00 | 0.00 | 51 | 1013.3 |
| 20260905193201 | 93 | 146 | 9.0 | 13.0 | 0.00 | 0.00 | 0.00 | 50 | 1013.6 |
| 20260905192655 | 93 | 194 | 6.0 | 13.0 | 0.00 | 0.00 | 0.00 | 53 | 1013.6 |
| 20260905191721 | 93 | 130 | 4.0 | 9.0 | 0.00 | 0.00 | 0.00 | 50 | 1013.9 |
| 20260905191206 | 93 | 92 | 2.0 | 9.0 | 0.00 | 0.00 | 0.00 | 53 | 1013.9 |
| 20260905190707 | 92 | 119 | 5.0 | 10.0 | 0.00 | 0.00 | 0.00 | 53 | 1014.0 |
| 20260905190203 | 92 | 113 | 6.0 | 10.0 | 0.00 | 0.00 | 0.00 | 54 | 1014.0 |
| 20260905185718 | 92 | 127 | 4.0 | 12.0 | 0.00 | 0.00 | 0.00 | 55 | 1014.2 |
| 20260905185127 | 92 | 226 | 6.0 | 15.0 | 0.00 | 0.00 | 0.00 | 55 | 1014.3 |
| 20260905184655 | 92 | 157 | 4.0 | 15.0 | 0.00 | 0.00 | 0.00 | 55 | 1014.4 |
| 20260905184153 | 92 | 120 | 5.0 | 12.0 | 0.00 | 0.00 | 0.00 | 52 | 1014.4 |
| 20260905183145 | 91 | 140 | 1.0 | 10.0 | 0.00 | 0.00 | 0.00 | 58 | 1014.6 |
| 20260905182656 | 91 | 76 | 8.0 | 10.0 | 0.00 | 0.00 | 0.00 | 55 | 1014.7 |
| 20260905182153 | 90 | 131 | 3.0 | 7.0 | 0.00 | 0.00 | 0.00 | 54 | 1014.7 |
| 20260905181217 | 89 | 76 | 1.0 | 6.0 | 0.00 | 0.00 | 0.00 | 62 | 1014.9 |
| 20260905180637 | 88 | 76 | 4.0 | 10.0 | 0.00 | 0.00 | 0.00 | 61 | 1015.1 |
| 20260905180235 | 89 | 84 | 6.0 | 11.0 | 0.00 | 0.00 | 0.00 | 61 | 1015.1 |
| 20260905175722 | 90 | 137 | 8.0 | 11.0 | 0.00 | 0.00 | 0.00 | 59 | 1015.1 |
| 20260905175221 | 90 | 150 | 3.0 | 10.0 | 0.00 | 0.00 | 0.00 | 57 | 1015.2 |
| 20260905174630 | 90 | 114 | 4.0 | 12.0 | 0.00 | 0.00 | 0.00 | 59 | 1015.3 |
| 20260905174145 | 90 | 121 | 6.0 | 11.0 | 0.00 | 0.00 | 0.00 | 59 | 1015.3 |
| 20260905173710 | 90 | 126 | 5.0 | 16.0 | 0.00 | 0.00 | 0.00 | 58 | 1015.3 |
| 20260905173221 | 90 | 176 | 10.0 | 16.0 | 0.00 | 0.00 | 0.00 | 58 | 1015.4 |
| 20260905172644 | 89 | 136 | 6.0 | 14.0 | 0.00 | 0.00 | 0.00 | 59 | 1015.3 |
| 20260905172138 | 89 | 134 | 7.0 | 14.0 | 0.00 | 0.00 | 0.00 | 59 | 1015.3 |
| 20260905171656 | 89 | 105 | 6.0 | 13.0 | 0.00 | 0.00 | 0.00 | 61 | 1015.3 |
| 20260905171219 | 89 | 111 | 7.0 | 13.0 | 0.00 | 0.00 | 0.00 | 62 | 1015.4 |
| 20260905170625 | 88 | 168 | 6.0 | 12.0 | 0.00 | 0.00 | 0.00 | 65 | 1015.5 |
| 20260905170150 | 87 | 142 | 6.0 | 11.0 | 0.00 | 0.00 | 0.00 | 65 | 1015.6 |
| 20260905165708 | 87 | 145 | 6.0 | 11.0 | 0.00 | 0.00 | 0.00 | 65 | 1015.6 |
| 20260905165204 | 86 | 188 | 4.0 | 11.0 | 0.00 | 0.00 | 0.00 | 66 | 1015.7 |
| 20260905164655 | 86 | 169 | 6.0 | 10.0 | 0.00 | 0.00 | 0.00 | 67 | 1015.8 |
| 20260905164219 | 86 | 182 | 4.0 | 8.0 | 0.00 | 0.00 | 0.00 | 69 | 1015.8 |
| 20260905163714 | 85 | 198 | 4.0 | 13.0 | 0.00 | 0.00 | 0.00 | 69 | 1015.9 |
| 20260905163134 | 85 | 111 | 6.0 | 13.0 | 0.00 | 0.00 | 0.00 | 69 | 1016.0 |
| 20260905162631 | 85 | 140 | 6.0 | 11.0 | 0.00 | 0.00 | 0.00 | 71 | 1015.9 |
| 20260905162147 | 85 | 153 | 5.0 | 9.0 | 0.00 | 0.00 | 0.00 | 72 | 1015.9 |
| 20260905161649 | 85 | 184 | 2.0 | 10.0 | 0.00 | 0.00 | 0.00 | 74 | 1016.1 |
| 20260905161203 | 84 | 190 | 5.0 | 10.0 | 0.00 | 0.00 | 0.00 | 74 | 1016.2 |
| 20260905160705 | 85 | 172 | 6.0 | 10.0 | 0.00 | 0.00 | 0.00 | 73 | 1016.1 |
| 20260905160202 | 85 | 188 | 6.0 | 10.0 | 0.00 | 0.00 | 0.00 | 73 | 1016.1 |
| 20260905155652 | 84 | 120 | 4.0 | 9.0 | 0.00 | 0.00 | 0.00 | 75 | 1015.9 |
| 20260905154651 | 84 | 217 | 2.0 | 10.0 | 0.00 | 0.00 | 0.00 | 77 | 1016.0 |
| 20260905154205 | 84 | 176 | 5.0 | 11.0 | 0.00 | 0.00 | 0.00 | 77 | 1016.0 |
| 20260905153122 | 83 | 167 | 4.0 | 10.0 | 0.00 | 0.00 | 0.00 | 77 | 1015.9 |
| 20260905152727 | 84 | 167 | 6.0 | 13.0 | 0.00 | 0.00 | 0.00 | 75 | 1015.9 |
| 20260905152157 | 85 | 196 | 7.0 | 13.0 | 0.00 | 0.00 | 0.00 | 75 | 1015.8 |
| 20260905151654 | 85 | 218 | 5.0 | 8.0 | 0.00 | 0.00 | 0.00 | 76 | 1015.7 |
| 20260905151148 | 85 | 184 | 5.0 | 8.0 | 0.00 | 0.00 | 0.00 | 76 | 1015.8 |
| 20260905150142 | 84 | 93 | 6.0 | 11.0 | 0.00 | 0.00 | 0.00 | 79 | 1015.7 |
| 20260905145655 | 83 | 148 | 3.0 | 11.0 | 0.00 | 0.00 | 0.00 | 80 | 1015.7 |
| 20260905145149 | 83 | 140 | 7.0 | 10.0 | 0.00 | 0.00 | 0.00 | 81 | 1015.7 |
| 20260905144647 | 82 | 161 | 6.0 | 9.0 | 0.00 | 0.00 | 0.00 | 82 | 1015.7 |
| 20260905144208 | 82 | 194 | 5.0 | 9.0 | 0.00 | 0.00 | 0.00 | 83 | 1015.6 |
| 20260905143704 | 82 | 173 | 6.0 | 13.0 | 0.00 | 0.00 | 0.00 | 84 | 1015.7 |
| 20260905143157 | 81 | 134 | 7.0 | 12.0 | 0.00 | 0.00 | 0.00 | 85 | 1015.7 |
| 20260905142716 | 81 | 165 | 5.0 | 9.0 | 0.00 | 0.00 | 0.00 | 86 | 1015.8 |
| 20260905142147 | 81 | 144 | 3.0 | 8.0 | 0.00 | 0.00 | 0.00 | 88 | 1015.6 |
| 20260905141623 | 80 | 111 | 3.0 | 7.0 | 0.00 | 0.00 | 0.00 | 88 | 1015.6 |
| 20260905141141 | 80 | 138 | 4.0 | 10.0 | 0.00 | 0.00 | 0.00 | 89 | 1015.6 |
| 20260905140653 | 80 | 143 | 4.0 | 10.0 | 0.00 | 0.00 | 0.00 | 90 | 1015.5 |
| 20260905140158 | 80 | 177 | 4.0 | 8.0 | 0.00 | 0.00 | 0.00 | 91 | 1015.4 |
| 20260905135139 | 79 | 146 | 4.0 | 6.0 | 0.00 | 0.00 | 0.00 | 93 | 1015.3 |
| 20260905134703 | 79 | 171 | 1.0 | 6.0 | 0.00 | 0.00 | 0.00 | 94 | 1015.3 |
| 20260905134211 | 79 | 163 | 2.0 | 6.0 | 0.00 | 0.00 | 0.00 | 95 | 1015.3 |
| 20260905133726 | 78 | 163 | 1.0 | 6.0 | 0.00 | 0.00 | 0.00 | 95 | 1015.2 |
| 20260905133226 | 78 | 115 | 2.0 | 5.0 | 0.00 | 0.00 | 0.00 | 95 | 1015.2 |
| 20260905132659 | 77 | 158 | 1.0 | 4.0 | 0.00 | 0.00 | 0.00 | 95 | 1015.1 |
| 20260905132154 | 77 | 146 | 0.0 | 0.0 | 0.00 | 0.00 | 0.00 | 95 | 1015.1 |
| 20260905131659 | 76 | 142 | 0.0 | 0.0 | 0.00 | 0.00 | 0.00 | 95 | 1015.1 |
| 20260905131210 | 76 | 110 | 0.0 | 0.0 | 0.00 | 0.00 | 0.00 | 95 | 1015.2 |
| 20260905130716 | 76 | 111 | 0.0 | 0.0 | 0.00 | 0.00 | 0.00 | 95 | 1015.0 |
| 20260905130209 | 75 | 111 | 0.0 | 0.0 | 0.00 | 0.00 | 0.00 | 94 | 1014.9 |
| 20260905125701 | 75 | 110 | 0.0 | 0.0 | 0.00 | 0.00 | 0.00 | 94 | 1014.9 |
| 20260905125158 | 75 | 110 | 0.0 | 0.0 | 0.00 | 0.00 | 0.00 | 94 | 1014.8 |
| 20260905124722 | 75 | 111 | 0.0 | 0.0 | 0.00 | 0.00 | 0.00 | 94 | 1014.7 |
| 20260905124133 | 76 | 111 | 0.0 | 0.0 | 0.00 | 0.00 | 0.00 | 94 | 1014.7 |
| 20260905123651 | 76 | 110 | 0.0 | 0.0 | 0.00 | 0.00 | 0.00 | 94 | 1014.6 |
| 20260905123150 | 76 | 110 | 0.0 | 0.0 | 0.00 | 0.00 | 0.00 | 94 | 1014.6 |
| 20260905122219 | 76 | 114 | 0.0 | 2.0 | 0.00 | 0.00 | 0.00 | 94 | 1014.6 |